Natchitoches, LA

3:17 AM CST on November 13, 2019 (GMT -0600)
Natchitoches Regional

Weather History for KIER - October, 2019

Change the Weather History Date:

Monday, October 21, 2019

  Actual Average Record
Temperature  
Mean Temperature 67 °F -  
Max Temperature 77 °F 77 °F 92 °F (1979)
Min Temperature 56 °F 51 °F 30 °F (1989)
Cooling Degree Days 2    
Growing Degree Days 17 (Base 50)    
Moisture  
Dew Point 62 °F    
Average Humidity 80    
Maximum Humidity 98    
Minimum Humidity 55    
Precipitation  
Precipitation 1.30 in - - ()
Sea Level Pressure  
Sea Level Pressure 29.84 in    
Wind  
Wind Speed 8 mph (WNW)    
Max Wind Speed 18 mph    
Max Gust Speed 31 mph    
Visibility 9 miles    
Events Rain , Thunderstorm    
Averages and records for this station are not official NWS values.
T = Trace of Precipitation, MM = Missing Value Source: NWS Daily Summary

Daily Weather History Graph

Daily Weather History Graph

Search for Another Location

Airport or City:

Astronomy

Oct. 21, 2019 Rise Set
Actual Time 7:19 AM CDT 6:33 PM CDT
Civil Twilight 6:55 AM CDT 6:58 PM CDT
Nautical Twilight 6:26 AM CDT 7:26 PM CDT
Astronomical Twilight 5:58 AM CDT 7:55 PM CDT
Moon No Moon Rise 2:25 PM CDT (10/21)
Length of Visible Light 12h 03m
Length of Day
11h 13m
Waning Gibbous, 48% of the Moon is Illuminated
Oct 21
Waning Gibbous
Oct 27
New
Nov 4
First Quarter
Nov 12
Full
Nov 19
Last Quarter

Hourly Weather History & Observations

Time (CDT) Temp. Dew Point Humidity Pressure Visibility Wind Dir Wind Speed Gust Speed Precip Events Conditions
12:15 AM 76.6 °F 73.4 °F 90% 29.76 in 10.0 mi South 13.8 mph - N/A   Overcast
12:35 AM 76.5 °F 72.9 °F 89% 29.76 in 10.0 mi South 12.7 mph 18.4 mph N/A   Overcast
12:55 AM 76.1 °F 72.7 °F 89% 29.75 in 10.0 mi South 10.4 mph 17.3 mph N/A   Scattered Clouds
1:15 AM 76.1 °F 72.5 °F 89% 29.74 in 10.0 mi South 10.4 mph 16.1 mph N/A   Scattered Clouds
1:35 AM 76.1 °F 72.5 °F 89% 29.73 in 10.0 mi South 11.5 mph - N/A   Mostly Cloudy
1:55 AM 76.1 °F 72.7 °F 89% 29.73 in 10.0 mi South 9.2 mph - N/A   Mostly Cloudy
2:35 AM 76.5 °F 72.5 °F 87% 29.72 in 10.0 mi South 10.4 mph 18.4 mph N/A   Overcast
2:55 AM 76.6 °F 72.5 °F 87% 29.73 in 10.0 mi South 12.7 mph 17.3 mph N/A   Overcast
3:15 AM 77.0 °F 72.5 °F 86% 29.74 in 10.0 mi South 11.5 mph 16.1 mph N/A   Overcast
3:35 AM 77.0 °F 72.1 °F 85% 29.74 in 10.0 mi South 8.1 mph - N/A   Overcast
3:55 AM 76.8 °F 72.5 °F 86% 29.74 in 10.0 mi South 8.1 mph - N/A   Overcast
4:15 AM 76.8 °F 72.5 °F 86% 29.73 in 10.0 mi South 9.2 mph - N/A   Overcast
4:35 AM 77.0 °F 72.5 °F 86% 29.73 in 10.0 mi South 8.1 mph - N/A   Overcast
4:55 AM 77.0 °F 72.7 °F 86% 29.74 in 10.0 mi South 6.9 mph - N/A   Overcast
5:15 AM 76.6 °F 72.7 °F 87% 29.73 in 10.0 mi South 9.2 mph - N/A   Overcast
5:35 AM 76.1 °F 72.7 °F 89% 29.73 in 10.0 mi South 8.1 mph - N/A   Overcast
6:15 AM 75.9 °F 72.9 °F 90% 29.72 in 10.0 mi South 8.1 mph - N/A   Overcast
6:35 AM 75.7 °F 73.0 °F 91% 29.75 in 10.0 mi SSW 3.5 mph - N/A   Overcast
6:55 AM 74.7 °F 65.5 °F 73% 29.79 in 10.0 mi NNW 18.4 mph 31.1 mph N/A Rain , Thunderstorm Rain
7:15 AM 65.5 °F 63.1 °F 92% 29.80 in 1.2 mi WNW 5.8 mph 21.9 mph 0.54 in Rain , Thunderstorm Heavy Thunderstorms and Rain
7:35 AM 64.4 °F 63.5 °F 97% 29.79 in 4.0 mi NW 6.9 mph - 0.71 in Rain , Thunderstorm Light Thunderstorms and Rain
7:55 AM 64.4 °F 63.5 °F 97% 29.82 in 7.0 mi Calm Calm - 0.73 in Rain , Thunderstorm Light Thunderstorms and Rain
8:15 AM 63.7 °F 62.8 °F 97% 29.79 in 5.0 mi North 3.5 mph - 0.02 in Rain , Thunderstorm Rain
8:35 AM 63.5 °F 62.6 °F 97% 29.83 in 7.0 mi Calm Calm - 0.05 in Rain Rain
8:55 AM 63.5 °F 62.6 °F 97% 29.84 in 1.5 mi Calm Calm - 0.12 in Rain Rain
9:15 AM 63.5 °F 63.0 °F 98% 29.84 in 1.8 mi Calm Calm - 0.06 in Rain Rain
9:35 AM 63.5 °F 63.0 °F 98% 29.85 in 5.0 mi SE 6.9 mph - 0.15 in Rain Rain
9:55 AM 63.5 °F 62.8 °F 97% 29.87 in 3.0 mi South 3.5 mph - 0.23 in Rain Heavy Rain
10:15 AM 63.5 °F 62.8 °F 97% 29.87 in 3.0 mi SSE 3.5 mph - 0.07 in Rain Rain
10:35 AM 63.1 °F 62.6 °F 98% 29.84 in 4.0 mi SE 6.9 mph - 0.14 in Rain Rain
10:55 AM 62.8 °F 61.9 °F 97% 29.84 in 5.0 mi ESE 4.6 mph - 0.19 in Rain Rain
11:15 AM 61.9 °F 60.1 °F 94% 29.85 in 10.0 mi ESE 3.5 mph - 0.02 in Rain Rain
11:35 AM 61.7 °F 59.9 °F 94% 29.86 in 10.0 mi Calm Calm - 0.02 in   Drizzle
11:55 AM 62.1 °F 60.6 °F 95% 29.87 in 10.0 mi Calm Calm - 0.03 in   Light Drizzle
12:15 PM 63.0 °F 60.1 °F 90% 29.87 in 10.0 mi Calm Calm - N/A   Scattered Clouds
12:35 PM 66.6 °F 60.4 °F 81% 29.85 in 10.0 mi Calm Calm - N/A   Scattered Clouds
12:55 PM 67.8 °F 60.3 °F 77% 29.85 in 10.0 mi Calm Calm - N/A   Scattered Clouds
1:15 PM 71.4 °F 61.2 °F 70% 29.85 in 10.0 mi Calm Calm - N/A   Scattered Clouds
1:35 PM 71.4 °F 59.7 °F 66% 29.85 in 10.0 mi NNW 3.5 mph - N/A   Mostly Cloudy
1:55 PM 70.9 °F 61.7 °F 73% 29.84 in 10.0 mi NNW 4.6 mph - N/A   Overcast
2:15 PM 69.3 °F 61.2 °F 75% 29.83 in 10.0 mi Calm Calm - N/A   Overcast
2:35 PM 70.9 °F 61.9 °F 73% 29.83 in 10.0 mi NNW 4.6 mph - N/A   Overcast
2:55 PM 71.1 °F 61.9 °F 73% 29.83 in 10.0 mi North 4.6 mph - N/A   Overcast
3:15 PM 71.4 °F 61.3 °F 70% 29.83 in 10.0 mi NNW 4.6 mph - N/A   Overcast
3:35 PM 72.7 °F 61.9 °F 69% 29.84 in 10.0 mi WNW 4.6 mph - N/A   Scattered Clouds
3:55 PM 75.0 °F 62.1 °F 64% 29.84 in 10.0 mi Calm Calm - N/A   Clear
4:15 PM 74.3 °F 61.9 °F 65% 29.83 in 10.0 mi North 4.6 mph - N/A   Clear
4:35 PM 75.0 °F 61.9 °F 64% 29.83 in 10.0 mi North 4.6 mph - N/A   Clear
4:55 PM 75.4 °F 61.7 °F 62% 29.83 in 10.0 mi North 5.8 mph - N/A   Clear
5:15 PM 75.7 °F 61.7 °F 62% 29.83 in 10.0 mi NNW 4.6 mph - N/A   Clear
5:35 PM 77.0 °F 61.9 °F 59% 29.84 in 10.0 mi North 3.5 mph - N/A   Clear
5:55 PM 76.6 °F 62.4 °F 61% 29.85 in 10.0 mi Calm Calm - N/A   Clear
6:15 PM 73.0 °F 55.9 °F 55% 29.85 in 10.0 mi NW 5.8 mph - N/A   Clear
6:35 PM 68.5 °F 52.9 °F 57% 29.86 in 10.0 mi NW 9.2 mph - N/A   Clear
6:55 PM 66.7 °F 51.1 °F 57% 29.88 in 10.0 mi NW 8.1 mph - N/A   Clear
7:15 PM 66.2 °F 50.7 °F 57% 29.89 in 10.0 mi NW 9.2 mph - N/A   Clear
7:35 PM 65.7 °F 50.9 °F 59% 29.91 in 10.0 mi NNW 6.9 mph - N/A   Clear
7:55 PM 65.3 °F 52.0 °F 62% 29.93 in 10.0 mi NNW 6.9 mph - N/A   Clear
8:15 PM 63.7 °F 51.8 °F 65% 29.93 in 10.0 mi NNW 6.9 mph - N/A   Clear
8:35 PM 62.8 °F 52.3 °F 69% 29.94 in 10.0 mi NNW 5.8 mph - N/A   Clear
8:55 PM 61.3 °F 52.0 °F 71% 29.95 in 10.0 mi NNW 5.8 mph - N/A   Clear
9:15 PM 59.9 °F 51.8 °F 75% 29.96 in 10.0 mi NNW 3.5 mph - N/A   Clear
9:55 PM 57.6 °F 52.5 °F 83% 29.99 in 10.0 mi NW 6.9 mph - N/A   Clear
10:15 PM 57.2 °F 51.3 °F 81% 30.00 in 10.0 mi NW 8.1 mph - N/A   Clear
10:35 PM 57.6 °F 50.7 °F 78% 30.01 in 10.0 mi NW 10.4 mph - N/A   Clear
10:55 PM 59.2 °F 50.2 °F 72% 30.01 in 10.0 mi NW 10.4 mph - N/A   Clear
11:15 PM 58.6 °F 50.0 °F 73% 30.02 in 10.0 mi NW 6.9 mph - N/A   Clear
11:55 PM 56.3 °F 49.3 °F 77% 30.03 in 10.0 mi NW 6.9 mph - N/A   Clear